Weather in Dobele

Latvia     56˚37′26″N   23˚16′51″E
temp.,
°C
wind,
m/s
gust,
m/s
humid.,
%
clouds,
%
prec.,
mm/h
press.,
hPa
HPBL,
m
17 january, sun
sun1723:00−16˚nne119085 0.0 102020
02:00−16˚n119268 0.0 102020
05:00−16˚nne119658 0.0 102020
08:00−16˚ne119564 0.0 102020
11:00−14˚sw008913 0.0 102260
14:00−11˚sw11836 0.0 1021173
17:00−13˚sw12920 0.0 102120
20:00−14˚wsw22910 0.0 102223
18 january, mon
mon1823:00−14˚sw23881 0.0 102138
02:00−14˚sw238912 0.0 102160
05:00−13˚sw349446 0.0 101984
08:00−11˚ssw369456 0.1 1020158
11:00−9˚ssw369399 0.1 1019256
14:00−7˚ssw369299 0.1 1019318
17:00−6˚sw41094100 0.2 1018355
20:00−8˚sw4109398 0.3 1018280
19 january, tue
tue1923:00−10˚sw389089 0.0 1017211
02:00−12˚ssw398568 0.0 1017190
05:00−13˚s38860 0.0 1015195
08:00−13˚sse38850 0.0 1015210
11:00−10˚sse498169 0.0 1014296
14:00−9˚sse488764 0.0 1012330
17:00−10˚sse499496 0.1 1011343
20:00−9˚sse499495 0.3 1011317
20 january, wed
wed2023:00−8˚sse479496 0.1 1010264
02:00−9˚se489598 0.2 1010260
05:00−7˚se41094100 0.0 1008283
08:00−6˚sse51293100 0.1 1007480
11:00−5˚sse61294100 0.2 1005566
14:00−3˚sse61295100 1.9 1002514
17:00−1˚sse51194100 1.3 1001405
20:00+2˚s41198100 1.5 1000394
21 january, thu
thu2123:00+2˚ssw51198100 0.1 1000384
02:00+2˚ssw51298100 0.1 1001354
05:00+2˚ssw51197100 0.0 1001367
08:00+1˚ssw51097100 0.0 1001354
11:00+1˚ssw51290100 0.0 1001438
14:00+2˚ssw41189100 0.0 1001381
17:00ssw4991100 0.0 1000254
20:00s4993100 0.0 1000278